Location: Foulognes
(49.1413°N, 0.8183°W)
Time: 12:59:14
(UTC+00:00)

Cosmos 1777 Rocket - Pass Details

Date: 21 October 2019
Orbit: 759 x 775 km, 74.0° (Epoch: 21 November)

Event Time Altitude Azimuth Distance (km) Brightness Sun altitude
Rises 17:55:22 0° 336° (NNW) 3,238 7.5 -9.3°
Reaches altitude 10° 17:57:45 10° 335° (NNW) 2,306 6.7 -9.7°
Maximum altitude 18:02:59 84° 249° (WSW) 771 4.1 -10.6°
Drops below altitude 10° 18:08:10 10° 161° (SSE) 2,285 6.3 -11.4°
Sets 18:10:32 0° 161° (SSE) 3,206 7.1 -11.8°
